Погода Красный Чикой

Погода Красный Чикой : погода сейчас, прогноз погоды и архив. Всё, что Вы хотите узнать о погоде Красный Чикой!

Хотите узнать прогноз погоды Красный Чикой? Тогда Вам сюда: Погода Красный Чикой

Поиск расширенной информации на нашем сайте:

Полезная информация: Как сделать запоминающуюся визитку www.vizitkidarom.ru.

Другие новости

Новости СМИ2

Главная страница сайта

Новости сайта

02.10.2013

Напоминаем, что на нашем новом сайте вы можете получить высокодетализированные прогнозы погоды по пунктам России, СНГ и мира (включающие важные для авиации метеовеличины, такие как направление и скорость ветра, видимость, явления погоды, количество и форма облачности, нижняя и верхняя граница облачности), а также ознакомиться с разнообразными материалами по авиационной метеорологии и подборкой полезных ссылок на эту тему.

Сайт Метеоцентр.Азия посвящён разработке технологий оптимизации авиаметеорологического обслуживания, включая проектирование и перспективное создание нескольких автоматизированных авиаметеорологических систем:
- система выпуска высокодетальных прогностических карт явлений погоды для нижнего воздушного пространства по России и ближнему зарубежью;
- система верификации прогнозов TAF (выпускаемых синоптиками официальных АМСГ РФ и ближнего зарубежья) и AUTOTAF (выпускаемых сайтом Метеоцентр.Азия) - выявление ошибок, онлайн-сопоставление с фактической погодой METAR, автоматическое внесение коррективов в прогнозы при резком отклонении фактической погоды от прогноза, подсчёт оправдываемости прогнозов по элементам и в целом;
- система обработки, анализа и отображения авиаметеорологической информации для применения провайдерами метеорологической информации.

Рекомендуем: Янукович історія Вінниці www.imsu-vinnycja.com.

Погода Красный Чикой - сегодня

Время (UTC), дата Ветер
(°,м/с) 
Видим.   Явления Облачность Т
(°С)
Тd
(°С)
f(%) Тe
(°С)
Pmin
(гПа)
dP
(гПа)
Po
(мм)
O2
(г/м3)
Тmin Tmax R s Состояние
почвы
03 23.04.17 330 (СЗ) 6-12{13}  20000 м    6/5 1000 м верхняя 
[Cu hum|Ci fib]
+2.4 -13.3 30 -1  1016.1  -1.7  693  278           
06 23.04.17 300 (СЗ) 7-12{16}  20000 м    10/8 1000 м кучево-дожд., средняя, верхняя 
[Cb cap|Ac lent|Ci fib]
+4.3 -15.7 22 +1  1014.8  -0.6  693  276           
09 23.04.17 310 (СЗ) 7-12{15}  20000 м    10/8 1000 м кучево-дожд., средняя, верхняя 
[Cb cap|Ac lent|Ci fib]
+4.8 -13.5 25 +2  1015  0.4  693  275           
12 23.04.17 050 (СВ) 3{12}  20000 м    10/6 1000 м кучево-дожд., средняя, верхняя 
[Cb cap|Ac lent|Ci sp]
+3 -13.2 29 +2  1017.9  2.1  695  278    +6       
15 23.04.17 360 (С) 20000 м    10/6 1000 м кучево-дожд., средняя, верхняя 
[Cb cap|Ac lent|Ci sp]
+2.4 -12.5 32 +1  1019.8  1.5  696  279           
18 23.04.17 270 (З) 20000 м    10/3 1000 м средняя, верхняя 
[Sc diur, vesp|Ac lent|Ci sp]
-0.4 -11.6 42 1021.8  0.9  697  282           
21 23.04.17 310 (СЗ) 20000 м    4/0 верхняя 
[Ci fib]
-3.2 -10.9 55 -3  1024.5  1.5  698  285           
00 24.04.17 290 (З) 20000 м    4/0 верхняя 
[Ci fib]
+1 -12.2 37 +2  1025.3  2.2  699  282  -5.7         
03 24.04.17 290 (З) 20000 м    10/0 средняя, верхняя 
[Ac lent|Ci fib]
+5.4 -11.8 28 +6  1024.7  0.8  700  277           
06 24.04.17 310 (СЗ) 20000 м    10/3 1000 м средняя, верхняя 
[Ac lent|Ci fib]
+8.2 -10.9 25 +9  1023.2  -0.5  700  275           
09 24.04.17 310 (СЗ) 20000 м    10/3 1000 м верхняя 
[Cu hum|Ci fib]
+9.5 -11.3 22 +9  1021.9  -0.8  699  273           
12 24.04.17 330 (СЗ) 20000 м    3/0 верхняя 
[Ci fib]
+7.1 -10.5 27 +6  1023.5  0.8  700  276    +10.6       
15 24.04.17 200 (Ю) 20000 м    ясно 
+1.1 -8.3 49 1027.3  1.5  701  282           
18 24.04.17 тихо ()   20000 м    ясно 
-3.7 -8.1 71 -4  1029.6  0.6  701  287           
21 24.04.17 тихо ()   20000 м    ясно 
-6.9 -9.2 84 -7  1031.2  0.3  701  291           
00 25.04.17 080 (В) 20000 м    ясно 
-1.1 -7.1 64 -1  1029.8  0.8  702  285  -7.4         
03 25.04.17 200 (Ю) 20000 м    4/0 верхняя 
[Ci fib]
+9.1 -10.4 24 +9  1025.5  -0.8  701  274           
06 25.04.17 240 (ЮЗ) 20000 м    3/3 1000 м верхняя 
[Cu med, cong|Ci fib]
+12.4 -12.7 16 +13  1022.6  -1.7  700  271           
09 25.04.17 330 (СЗ) 20000 м    4/4 1000 м 
[Cu med, cong]
+14.2 -13.8 13 +14  1020.9  -1  699  269           
12 25.04.17 330 (СЗ) 20000 м    ясно 
+9.2 -13.2 19 +9  1023.6  700  274    +14.6       
15 25.04.17 190 (Ю) 20000 м    ясно 
+2.5 -10.1 39 +3  1028.3  2.2  702  281           
18 25.04.17 тихо ()   20000 м    ясно 
-2.6 -9 61 -3  1031.6  1.4  703  287           
21 25.04.17 310 (СЗ) 20000 м    ясно 
-6.2 -9 81 -8  1034  0.9  703  291           
00 26.04.17 180 (Ю) 20000 м    3/0 верхняя 
[Ci fib]
+1.4 -7.6 51 +2  1032.6  1.3  704  283  -6.7         
03 26.04.17 160 (Ю) 20000 м    3/0 верхняя 
[Ci fib]
+13.1 -10.3 19 +14  1027.8  -0.9  704  271           
Время (UTC), дата Ветер
(°,м/с) 
Видим.   Явления Облачность Т
(°С)
Тd
(°С)
f(%) Тe
(°С)
Pmin
(гПа)
dP
(гПа)
Po
(мм)
O2
(г/м3)
Тmin Tmax R s Состояние
почвы

Для получения пояснительной информации подведите курсор к названию столбца.

ПОГОДА Красный Чикой - архив

Всё, что Вы хотите узнать о погоде Красный Чикой - удобно и подробно!

Выберите нужную дату (начиная с 1 января 2015* года) и нажмите кнопку "Найти".
Будут отображены архивные сводки погоды по пункту Красный Чикой, начиная с указанной даты.


Отображать данные в формате CSV (для использования в таблицах Excel)


Внимание! Наш архив погоды предназначен исключительно для личного некоммерческого использования в познавательных целях. Если Вам необходимы официальные справки о состоянии погоды (для производственных, юридических, коммерческих и т.п. целей), обращайтесь в органы Росгидромета.

*Примечание: данная дата относится к архиву по метеостанциям СССР (Россия, СНГ, Балтия).
Архив по метеостанциям Зарубежной Европы и Азии (кроме Китая) хранится 10 дней, по другим регионам земного шара (Китай, Африка, Америка, Австралия, Океания) - 1 день.

Красный Чикой - район местоположения метеостанции


Название, широта, долгота, высота метеостанции:
Красный Чикой 50.4°ш. 108.8°д. 771 м над ур. моря [Российская Федерация]

Дополнительная информация

В oтличие oт бoльшинства пoгoдных сайтoв мы публикуем пoдрoбную метеoинфoрмацию в детальнoм прoфессиoнальнoм фoрмате.

Характеристики температуры и влажнoсти вoздуха измеряются на высoте 2 м в тени вдали oт зданий и деревьев.
Скoрoсть ветра измеряется на высoте 10 м (на урoвне рoста челoвека скoрoсть ветра ниже в 1.5-2 раза). Если метеoстанция нахoдится в гoрoде или в лесу, тo скoрoсть ветра занижена на 2-4 м/с пo сравнению с oткрытым местoм. Скoрoсть ветра над акватoриями крупных рек и oзёр, а также на вершинах хoлмoв на 2-5 м/с выше, чем в oбычных услoвиях.
Атмoсфернoе давление в разных тoчках местнoсти мoжет значительнo oтличаться oт давления на метеoстанции, в зависимoсти oт услoвий рельефа (при пoдъёме на 10 м давление пoнижается примернo на 1 мм рт.ст.).